2021-006EN (47687 NORAD) Tracking and Keplerian Element Data

This shows tracking and keplerian element data for the satellite.

Feedback or suggestion? Click here.




ElementValue
Catalog47687
Name2021-006EN
Epoch Orbit569
Epoch Day53.85155495
Epoch Year2021
RAAN117.0426
Inclination97.5077
Eccentricity0.000851
Argument of Perigee132.7657
Mean Anonmoly227.429
Mean Motion15.11591389
Decay Rate9.07E-06
L11 47687U 21006EN 21053.85155495 .00000907 00000-0 57178-4 0 9992
L22 47687 97.5077 117.0426 0008510 132.7657 227.4290 15.11591389 5694

Live tracking and technical data element details for 2021-006EN (NORAD 47687). 2021-006EN can be tracked NOW for your location showing map with azimuth and elevation plus other details from your city location.

Track the satellite on the map from your city or location and see movement details for azimuth, elevation, latitude, longitude, range, height, and movement on the map or in text.







IsCatalogInMostPopularTable: catalog: 47687, numindb: 1
Update: records affected: 1



GetName: 47687 2021-006EN

Hit Count: updated at: Fri, 26 Feb 2021 09:28:21 GMT